DMSP 5D-3 F19 DEB

Satellite information

Favourite Embed

Satellite Type and Status

DEBRISIN ORBIT

Key statistics

Satellite DMSP 5D-3 F19 DEB at a glance.

Uptime

4053

Days in orbit

Revolutions

≈ 14.2

Per day

Orbit

SSO

Sun Synchronous Orbit

Inclination

98.7

Latest

Satellite identification and parameters

Extended collection of information and parameters for DMSP 5D-3 F19 DEB.

Object identification

Identified? True

Debris? True

Object name: DMSP 5D-3 F19 DEB

International designator: 2014-015C

Object number (NORAD): 39632

Object ID (CCSDS): 39632

Country: UNITED STATES OF AMERICA (US)

Current information (Y/N): Y

RCS size: SMALL

Orbital parameters

Period: 101.093 minutes

Inclination: 98.6723 deg

SMA: 7188.548 km

Apoapsis: 813.402 km

Periapsis: 807.424 km

RAAN: 139.6788 deg

Eccentricy: 0.0004158

Argument of periapsis: 200.5532 deg

Mean anomaly: 159.548 deg

Mean motion: 14.24429595 rev/day

Mean motion (dot): 0.0000205 rev/day2

B* drag term: 0.0009041 1/REarth

Two-line elements (TLE)

Creation date: May 8, 2025, 3:01 a.m.

Reference frame: TEME

Reference center: EARTH

Epoch: May 7, 2025, 6:04 p.m. UTC

TLE line 0: 0 DMSP 5D-3 F19 DEB

TLE line 1: 1 39632U 14015C 25127.75305852 .00002050 00000-0 90410-3 0 9990

TLE line 2: 2 39632 98.6723 139.6788 0004158 200.5532 159.5480 14.24429595574000

Live tracking on map

Real-time ground track for satellite DMSP 5D-3 F19 DEB.

In-orbit conjunctions

A list of the most updated potential collisions computed for object DMSP 5D-3 F19 DEB.

Target Orbit TCA Probability of collision Miss distance Type
CZ-6A DEB LEO 2025-01-28 11:42:14 0.0002489647 539.0 (m) DEBRIS
SL-16 R/B LEO 2024-10-05 21:15:21 0.0002461094 193.0 (m) ROCKET BODY

Associated space launch

DMSP-5D3 (Defense Meteorological Satellite Program Block 5D3) is the eleventh and most recent version of the military meteorological satellites of the Defense Meteorological Satellite Program.

DMSP 5D-3 F19 DEB was lifted into orbit during the mission ‘Atlas V 401 | DMSP-5D3 F19’, on board a Atlas V 401 space rocket.

The launch took place on April 3, 2014, 2:46 p.m. from Space Launch Complex 3E.

For more information about the launch, click the button.

Launch to space Atlas V 401 | DMSP-5D3 F19
Atlas V 401 | DMSP-5D3 F19

Agency: N/A

Status: Launch Successful

Launch date: April 3, 2014, 2:46 p.m. UTC

Rocket: Atlas V 401

Launch pad: Space Launch Complex 3E

Location: Vandenberg SFB, CA, USA

...

Latest news about this satellite

There are no fresh news available about this satellite. Check back as we update our databases every day.


Newsletter sign-up

Weekly statistics, charts and insights to help you stay on top of the space industry.